Other Public Products
Issued by NWS Grand Forks, ND

Home | Current Version | Previous Version | Graphics & Text | Print | Product List | Glossary On
Versions: 1 2 3 4 5 6 7 8 9 10 11 12 13 14 15 16 17 18 19 20 21 22 23 24 25 26 27 28 29 30 31 32 33 34 35 36 37 38 39 40 41 42 43 44 45 46 47 48 49 50
000
FPUS83 KFGF 291610
OPUFGF
PRAIRIE TO PINES WEATHER ROUNDUP
NATIONAL WEATHER SERVICE EASTERN NORTH DAKOTA/GRAND FORKS ND
1100 AM CDT SUN MAR 29 2015

 **SATELLITE DATA USED TO AUGMENT SKY COVER AT AUTOMATED STATIONS**
 *****  WEATHER ACROSS EASTERN NORTH DAKOTA  *****

CITY           SKY/WX    TMP DP  RH WIND       PRES   REMARKS
GRAND FORKS    MOSUNNY   45  35  68 N26G35    29.82R
GRAND FORKS AF MOSUNNY   45  36  70 N23G32    29.82R
GRAND CITY NWS   N/A     41 N/A N/A N16         N/A
BUXTON         NOT AVBL
DEVILS LAKE    SUNNY     45  34  65 NW21G32   29.89R
FARGO          LGT RAIN  47  36  65 NW29G35   29.81R
WAHPETON ARPT  CLOUDY    43  34  70 NW29G38   29.82R
$$

 *****  WEATHER ACROSS CENTRAL AND WESTERN NORTH DAKOTA  *****

CITY           SKY/WX    TMP DP  RH WIND       PRES   REMARKS
JAMESTOWN      SUNNY     45  33  63 NW25G37   29.91R
BISMARCK       SUNNY     48  32  53 NW20G26   30.05R
MINOT          SUNNY     49  30  48 W20G26    29.99R
MINOT AFB      SUNNY     46  36  69 NW22G30   29.98S
GARRISON         N/A     46  35  65 NW20      30.02S
WILLISTON      SUNNY     46  37  71 W15       30.07R
DICKINSON      MOSUNNY   44  36  73 NW17      30.07S
HETTINGER      SUNNY     46  35  65 NW21G29   30.12R
$$

 *****  OTHER OBSERVATIONS NORTHEAST NORTH DAKOTA  *****

CITY           SKY/WX    TMP DP  RH WIND       PRES   REMARKS
WALHALLA         N/A     45  39  81 NW23G32   29.83R
LANGDON        NOT AVBL
CAVALIER       CLOUDY    45  36  70 NW23G31   29.82R
GRAFTON        NOT AVBL
CANDO          NOT AVBL
FORT TOTTEN      N/A     43  34  71 NW10      29.95S
ROLLA          FAIR      43  32  65 NW24G32   29.91R
RUGBY          FAIR      43  34  70 NW23G29   29.95R
 ***** THE ABOVE OBSERVATIONS ARE NON NWS ARE NOT QUALITY
        CONTROLLED AND MAY MIS-REPORT RAIN FOR SNOW...
$$

 *****  OTHER OBSERVATIONS SOUTHEAST NORTH DAKOTA *****

CITY           SKY/WX    TMP DP  RH WIND       PRES   REMARKS
COOPERSTOWN    NOT AVBL
VALLEY CITY    FAIR      45  37  76 NW32G39   29.88R
OAKES            N/A     45  37  76 NW32G38   29.91R
GWINNER        MOSUNNY   46  37  71 NW33        N/A
SHEYENNE NWR     N/A     46  36  67 NW21      29.95
BUFFALO        NOT AVBL
WYNDMERE         N/A     45  37  76 NW28        N/A
 ***** THE ABOVE OBSERVATIONS ARE NON NWS ARE NOT QUALITY
       CONTROLLED AND MAY MIS-REPORT RAIN FOR SNOW...
$$

  *****  WEATHER ACROSS NORTHERN MINNESOTA  *****

CITY           SKY/WX    TMP DP  RH WIND       PRES   REMARKS
FLAG ISLAND    CLOUDY    34  30  86 NW28G33   29.63R WCI  20
WARROAD        FLURRIES  36  32  87 NW23G33   29.66R
ROSEAU         CLOUDY    36  30  80 NW28G41   29.69R
HALLOCK        CLOUDY    39  34  81 NW24G35   29.80R
THF RVR FALLS  CLOUDY    37  32  81 NW29G36   29.75R
HALSTAD        NOT AVBL
FOSSTON        CLOUDY    36  32  87 NW23G38   29.73R
BAUDETTE       CLOUDY    34  31  88 NW24G32   29.61R WCI  21
WASKISH        CLOUDY    36  34  93 NW20G26   29.62R
CROOKSTON      CLOUDY    39  36  87 N28G38    29.80R
$$
  *****  WEATHER ACROSS CENTRAL AND WEST MINNESOTA  *****

CITY           SKY/WX    TMP DP  RH WIND       PRES   REMARKS
BEMIDJI        CLOUDY    37  33  85 NW26G37   29.63R
PARK RAPIDS    CLOUDY    40  34  79 NW23G37   29.63R
WADENA         CLOUDY    37  34  87 NW26G37   29.66R
DETROIT LAKES  CLOUDY    36  34  93 NW35G43   29.74R
MOORHEAD       MOSUNNY   45  39  81 NW30G43   29.81R
FERGUS FALLS   PTSUNNY   39  37  93 NW33G40   29.79R
ELBOW LAKE     CLOUDY    38  33  84 N29G37    29.77R
MORRIS MN      CLOUDY    41  37  87 NW39G48   29.75R
STAPLES        CLOUDY    39  36  87 NW22G33   29.62R
WHEATON        MOSUNNY   43  34  70 NW26G37   29.84R
$$
  *****  WEATHER ELSEWHERE ACROSS MINNESOTA  *****

CITY           SKY/WX    TMP DP  RH WIND       PRES   REMARKS
DULUTH         LGT SNOW  34  31  88 W15       29.46S VSB 3/4 WCI  24
INTRNTL FALLS  CLOUDY    37  34  89 NW22G28   29.52R
ELY            SNOW      32  30  93 W7        29.43R VSB 1/2
CLOQUET        LGT SNOW  34  32  93 SW5       29.48R
BRAINERD       LGT RAIN  40  36  86 NW22G31   29.58R
HIBBING        LGT SNOW  34  31  88 W7        29.48R FOG
ALEXANDRIA     CLOUDY    39  34  82 NW30G46   29.70R
SAINT CLOUD    RAIN      38  35  89 NW30G38   29.60R FOG
MINNEAPOLIS    CLOUDY    46  38  73 W17       29.56F
$$

  *****  WEATHER ACROSS SOUTH DAKOTA  *****

CITY           SKY/WX    TMP DP  RH WIND       PRES   REMARKS
SIOUX FALLS    CLOUDY    45  36  70 NW31G47   29.89R
BROOKINGS      NOT AVBL
WATERTOWN      PTSUNNY   42  35  76 N35G44    29.88R
HURON          CLOUDY    46  34  62 NW35G46   29.99R
SISSETON         N/A     46  38  73 N33G47    29.84R
ABERDEEN       MOSUNNY   48  35  60 NW30G38   29.99R
MITCHELL       CLOUDY    47  35  63 N36G48    29.99R
PIERRE         SUNNY     48  30  49 NW28G40   30.10R
MOBRIDGE       SUNNY     48  34  58 NW22G31   30.04R
RAPID CITY     MOSUNNY   51  31  46 N26G33    30.20R
$$

  *****  SOME WEATHER IN NEARBY STATES *****

CITY           SKY/WX    TMP DP  RH WIND       PRES   REMARKS
GLASGOW MT     PTSUNNY   44  37  76 W7        30.11F
GREAT FALLS MT CLOUDY    46  26  45 SW18      30.14F
CHEYENNE WY    SUNNY     45  18  34 N15G21    30.29S
SCOTTSBLUFF NE SUNNY     53  30  41 NW23G31   30.29R
OMAHA NE       PTSUNNY   58  37  45 NW24G31   29.92S
DES MOINES IA  CLOUDY    50  40  68 SW20      29.87S
DAVENPORT IA   CLOUDY    35  28  75 S23G36    29.92R WCI  23
CHICAGO IL     LGT RAIN  37  18  46 S20G35    29.97F
EAU CLAIRE WI  CLOUDY    36  33  89 S15G23    29.58F FOG
LA CROSSE WI   CLOUDY    37  32  82 S22G29    29.69F
$$

  *****  SOME NATIONAL WEATHER *****

CITY           SKY/WX    TMP DP  RH WIND       PRES   REMARKS
LA GUARDIA NY  SUNNY     36   3  25 NW9       30.28S
RALEIGH NC     SUNNY     42  10  27 VRB6      30.44F
ATLANTA GA     SUNNY     49  14  24 VRB7      30.40F
NEW ORLEANS LA MOSUNNY   71  56  58 SE14G23   30.30S
OKLAHOMA CITY  MOSUNNY   64  47  53 S13       29.95R
ALBUQUERQUE NM MOSUNNY   61  20  20 SW7       30.27R
SALT LAKE CITY SUNNY     49  24  37 SE9       30.33S
LOS ANGELES CA CLOUDY    58  58 100 E9        30.05F FOG
BOISE ID       MOSUNNY   47  30  51 CALM      30.32F
SEATTLE WA     CLOUDY    50  43  77 S9        30.27S
$$

*** WEATHER ACROSS MANITOBA...SASKATCHEWAN AND ONTARIO ***
                ***ONTARIO***

CITY           SKY/WX    TMP DP  RH WIND       PRES   REMARKS
GERALDTON      SNOW      28  27  93 S15G26    29.40F VSB 1/2 WCI  17
THUNDER BAY    LGT SNOW  34  30  86 SW7       29.43F
SIOUX LOOKOUT  LGT SNOW  34  32  93 N16G25    29.41R FOG     WCI  23
TORONTO        MOSUNNY   39  12  33 S10G20    30.20F
BIG TROUT LK   LGT SNOW  32  32 100 N8        29.41R VSB 1   WCI  25
PICKLE LAKE    LGT SNOW  34  30  86 N8        29.35R
DRYDEN         FLURRIES  34  32  93 NW10G22   29.47R
KENORA         FLURRIES  34  32  93 N18G26    29.58R WCI  23
$$
                *** MANITOBA***

CITY           SKY/WX    TMP DP  RH WIND       PRES   REMARKS
BRANDON        SUNNY     41  32  70 NW15      29.91R
DAUPHIN        SUNNY     39  30  70 W13       29.86R
ISLAND LAKE    PTSUNNY   30  27  86 NW16G26   29.62R WCI  19
PILOT MOUND      N/A     41  34  75 NW23G29     N/A
THE PAS        SUNNY     41  27  56 W13       29.77R
THOMPSON       CLOUDY    27  21  80 N13       29.71R WCI  16
WINNIPEG       PTSUNNY   41  34  75 NW24G31   29.80R
LYNN LAKE      CLOUDY    28  23  80 E7        29.73R WCI  21
GILLAM         SNOW      12   9  85 N16       29.72R VSB 1/2 WCI  -4
$$
                ***SASKATCHEWAN***

CITY           SKY/WX    TMP DP  RH WIND       PRES   REMARKS
ESTEVAN        MOSUNNY   43  36  75 W18       30.02R
KINDERSLEY     MOSUNNY   41  36  81 S8        29.97S
LLOYDMINSTER   MOSUNNY   43  34  70 SW9       29.88F
PRINCE ALBERT  MOSUNNY   43  30  61 NW13      29.91S
REGINA         MOSUNNY   41  37  87 W13       29.99F
YORKTON        CLOUDY    39  30  70 W13G18    29.91R


USA.gov is the U.S. government's official web portal to all federal, state and local government web resources and services.